User: anonymous   Login
Location: Unspecified
(0.0000°N, 0.0000°E)
Time: 09:04:38
(UTC+00:00)
Language:

Vanguard 3 - Orbit

View from above orbital plane
View from above orbital plane
View from above satellite
View from above satellite

Ground track
Ground track

The orbit data is extracted from the following two-line orbital elements,

1    20U 59007A   20093.92760576 +.00000028 +00000-0 -33567-5 0  9999
2    20 033.3510 091.0832 1666516 226.0942 118.9606 11.55679055221862
Epoch (UTC): 02 April 2020 22:15:45
Eccentricity: 0.1666516
inclination: 33.3510°
perigee height: 508 km
apogee height: 3263 km
right ascension of ascending node: 91.0832°
argument of perigee: 226.0942°
revolutions per day: 11.55679055
mean anomaly at epoch: 118.9606°
orbit number at epoch: 22186

The dashed part of the orbit path shows where the satellite is in the earth's shadow,  

DLR